Location: Unspecified
(0.0000°N, 0.0000°E)
Time: 14:21:32
(UTC+00:00)

KKS-1 - Pass Details

Date: 13 December 2017
Orbit: 637 x 651 km, 98.3° (Epoch: 20 January)

Event Time Altitude Azimuth Distance (km) Brightness Sun altitude
Rises 04:52:18 0° 165° (SSE) 2,968 ? -14.2°
Reaches altitude 10° 04:54:31 10° 164° (SSE) 2,055 ? -13.7°
Maximum altitude 04:59:00 77° 78° (ENE) 669 ? -12.7°
Drops below altitude 10° 05:03:28 10° 352° (N) 2,044 ? -11.6°
Sets 05:05:40 0° 351° (N) 2,951 ? -11.1°
